Weather History for Lamar, CO

Change the Weather History Date:

Thursday, February 21, 2013

  Actual Average Record
Temperature  
Mean Temperature 22 °F 35 °F  
Max Temperature 32 °F 51 °F 77 °F (1922)
Min Temperature 12 °F 19 °F -3 °F (1955)
Degree Days  
Heating Degree Days 43 30  
Month to date heating degree days 634 679  
Since 1 July heating degree days 3853 4110  
Cooling Degree Days 0 0  
Month to date cooling degree days 0 0  
Year to date cooling degree days 0 0  
Moisture  
Dew Point 18 °F    
Average Humidity 87    
Maximum Humidity 100    
Minimum Humidity 74    
Precipitation  
Precipitation 0.01 in 0.01 in 0.46 in (1931)
Month to date precipitation 0.10 0.28  
Year to date precipitation 0.12 0.58  
Sea Level Pressure  
Sea Level Pressure 29.79 in    
Wind  
Wind Speed 11 mph (NNE)    
Max Wind Speed 22 mph    
Max Gust Speed 26 mph    
Visibility 5 miles    
Events Snow    
T = Trace of Precipitation, MM = Missing Value Source: NWS Daily Summary

Daily Weather History Graph

Daily Weather History Graph

Search for Another Location

Airport:

Trip Planner

Search our weather history database for the weather conditions in past years. The results will help you decide how hot, cold, wet, or windy it might be!

Date:

Astronomy

Feb. 21, 2013 Rise Set
Actual Time 6:32 AM MST 5:36 PM MST
Civil Twilight 6:06 AM MST 6:02 PM MST
Nautical Twilight 5:35 AM MST 6:33 PM MST
Astronomical Twilight 5:05 AM MST 7:04 PM MST
Moon 1:55 PM MST (2/21) 3:36 AM MST (2/21)
Length of Visible Light 11h 56m
Length of Day
11h 03m
Waxing Gibbous, 84% of the Moon is Illuminated
Feb 21
Waxing Gibbous
Feb 25
Full
Mar 4
Last Quarter
Mar 11
New
Mar 19
First Quarter

Hourly Weather History & Observations

Time (MST) Temp. Windchill Dew Point Humidity Pressure Visibility Wind Dir Wind Speed Gust Speed Precip Events Conditions
12:53 AM 30.9 °F 22.2 °F 30.0 °F 96% 29.62 in 4.0 mi ESE 10.4 mph - N/A   Overcast
1:53 AM 30.9 °F 20.7 °F 30.0 °F 96% 29.64 in 3.0 mi ESE 13.8 mph - N/A   Overcast
2:24 AM 30.2 °F 19.3 °F 30.2 °F 100% 29.63 in 4.0 mi ESE 15.0 mph - N/A   Overcast
2:41 AM 30.2 °F 20.8 °F 28.4 °F 93% 29.61 in 2.5 mi ESE 11.5 mph - N/A   Overcast
2:53 AM 30.0 °F 18.7 °F 28.9 °F 96% 29.63 in 3.0 mi ESE 16.1 mph 21.9 mph N/A   Overcast
3:16 AM 30.2 °F 17.8 °F 28.4 °F 93% 29.64 in 5.0 mi SE 19.6 mph 25.3 mph N/A   Overcast
4:53 AM 30.0 °F 21.7 °F 28.0 °F 92% 29.65 in 10.0 mi ESE 9.2 mph - N/A   Overcast
5:38 AM 28.4 °F 18.5 °F 26.6 °F 93% 29.64 in 9.0 mi ENE 11.5 mph - N/A   Overcast
5:53 AM 28.0 °F 16.5 °F 27.0 °F 96% 29.68 in 5.0 mi East 15.0 mph - 0.00 in Snow Light Snow
6:26 AM 21.2 °F 6.4 °F 19.4 °F 93% 29.66 in 6.0 mi ENE 18.4 mph 26.5 mph 0.00 in   Overcast
6:53 AM 21.0 °F 7.1 °F 18.0 °F 88% 29.73 in 6.0 mi ENE 16.1 mph - 0.00 in   Overcast
7:53 AM 19.9 °F 4.3 °F 17.1 °F 89% 29.77 in 3.0 mi NE 19.6 mph 24.2 mph 0.00 in   Overcast
8:01 AM 19.4 °F 5.5 °F 15.8 °F 86% 29.72 in 2.5 mi ENE 15.0 mph - 0.00 in   Overcast
8:08 AM 19.4 °F 4.5 °F 15.8 °F 86% 29.72 in 3.0 mi NE 17.3 mph - 0.00 in   Overcast
8:42 AM 17.6 °F 3.2 °F 15.8 °F 93% 29.73 in 3.0 mi NE 15.0 mph - 0.00 in   Overcast
8:53 AM 18.0 °F 4.8 °F 15.1 °F 88% 29.81 in 2.5 mi NE 12.7 mph - 0.00 in   Overcast
9:03 AM 17.6 °F 5.0 °F 14.0 °F 86% 29.75 in 3.0 mi NE 11.5 mph - N/A   Overcast
9:14 AM 17.6 °F 7.3 °F 15.8 °F 93% 29.75 in 2.0 mi NE 8.1 mph - 0.00 in Snow Light Snow
9:21 AM 17.6 °F 5.7 °F 15.8 °F 93% 29.76 in 1.2 mi NE 10.4 mph - 0.00 in Snow Light Snow
9:33 AM 19.4 °F 7.9 °F 15.8 °F 86% 29.75 in 0.8 mi NNE 10.4 mph - 0.00 in Snow Light Snow
9:53 AM 19.0 °F 5.0 °F 15.1 °F 85% 29.83 in 1.2 mi NNE 15.0 mph - 0.01 in Snow Light Snow
10:01 AM 19.4 °F 6.6 °F 15.8 °F 86% 29.76 in 1.8 mi NNE 12.7 mph - 0.00 in Snow Light Snow
10:16 AM 19.4 °F 7.9 °F 15.8 °F 86% 29.76 in 1.2 mi North 10.4 mph - 0.00 in Snow Light Snow
10:31 AM 19.4 °F 7.2 °F 15.8 °F 86% 29.77 in 1.5 mi North 11.5 mph - 0.00 in Snow Light Snow
10:39 AM 19.4 °F 7.2 °F 15.8 °F 86% 29.77 in 1.2 mi North 11.5 mph - 0.00 in Snow Light Snow
10:49 AM 19.4 °F 7.2 °F 15.8 °F 86% 29.77 in 1.5 mi North 11.5 mph - 0.00 in Snow Light Snow
10:53 AM 19.9 °F 7.9 °F 15.1 °F 81% 29.84 in 1.5 mi North 11.5 mph - 0.00 in Snow Light Snow
11:05 AM 21.2 °F 8.9 °F 15.8 °F 80% 29.77 in 1.8 mi North 12.7 mph - 0.00 in Snow Light Snow
11:19 AM 21.2 °F 7.8 °F 15.8 °F 80% 29.77 in 2.5 mi North 15.0 mph - 0.00 in Snow Light Snow
11:33 AM 21.2 °F 7.8 °F 15.8 °F 80% 29.77 in 3.0 mi North 15.0 mph - 0.00 in   Haze
11:53 AM 21.9 °F 11.0 °F 16.0 °F 78% 29.83 in 3.0 mi North 10.4 mph - 0.00 in   Haze
12:53 PM 21.9 °F 10.4 °F 16.0 °F 78% 29.83 in 7.0 mi North 11.5 mph - N/A   Overcast
1:53 PM 21.9 °F 10.4 °F 16.0 °F 78% 29.83 in 9.0 mi NNE 11.5 mph - N/A   Overcast
2:53 PM 23.0 °F 11.1 °F 16.0 °F 74% 29.84 in 10.0 mi North 12.7 mph - N/A   Overcast
3:53 PM 23.0 °F 12.4 °F 16.0 °F 74% 29.85 in 10.0 mi North 10.4 mph - N/A   Overcast
4:53 PM 23.0 °F 13.1 °F 16.0 °F 74% 29.87 in 10.0 mi North 9.2 mph - N/A   Overcast
5:53 PM 23.0 °F 15.8 °F 16.0 °F 74% 29.90 in 10.0 mi NNW 5.8 mph - N/A   Overcast
6:53 PM 23.0 °F 14.7 °F 18.0 °F 81% 29.95 in 10.0 mi NW 6.9 mph - N/A   Overcast
7:29 PM 21.2 °F 11.7 °F 17.6 °F 86% 29.87 in 10.0 mi NW 8.1 mph - N/A   Scattered Clouds
7:53 PM 21.9 °F 12.5 °F 16.0 °F 78% 29.97 in 10.0 mi NNW 8.1 mph - N/A   Mostly Cloudy
8:21 PM 19.4 °F 8.6 °F 15.8 °F 86% 29.87 in 10.0 mi NNW 9.2 mph - N/A   Scattered Clouds
8:53 PM 19.9 °F 10.1 °F 14.0 °F 78% 30.00 in 10.0 mi NW 8.1 mph - N/A   Clear
9:53 PM 18.0 °F 7.7 °F 12.9 °F 81% 30.02 in 10.0 mi West 8.1 mph - N/A   Clear
10:53 PM 15.1 °F 9.4 °F 12.0 °F 88% 30.02 in 9.0 mi WSW 3.5 mph - N/A   Clear
11:53 PM 12.9 °F 6.9 °F 10.9 °F 92% 30.01 in 9.0 mi SSW 3.5 mph - N/A   Clear